QPF
0.00 0.00 0.00 0.01 0.03 0.05 0.09 0.11 0.12 0.09 0.08 0.05 0.02 0.02 0.02 0.03 0.04 0.04 0.03 0.02 0.02 0.03 0.05 0.06 0.08 0.11 0.10 0.08 0.05 0.03 0.02 0.01 0.01 0.02 0.03 0.05 0.04 0.04 0.05 0.05 0.05 0.03 0.03
0.00 0.00 0.00 0.01 0.01 0.02 0.05 0.07 0.13 0.14 0.15 0.09 0.03 0.02 0.03 0.04 0.06 0.06 0.02 0.01 0.02 0.02 0.04 0.05 0.08 0.10 0.10 0.08 0.06 0.06 0.04 0.01 0.00 0.00 0.01 0.01 0.00 0.01 0.03 0.04 0.02 0.05 0.04
0.00 0.00 0.00 0.01 0.01 0.02 0.03 0.06 0.12 0.12 0.16 0.13 0.08 0.06 0.05 0.04 0.08 0.08 0.04 0.04 0.05 0.03 0.02 0.03 0.08 0.10 0.09 0.08 0.08 0.08 0.06 0.02 0.00 0.00 0.00 0.01 0.01 0.00 0.01 0.02 0.03 0.04 0.03
0.00 0.00 0.00 0.01 0.02 0.03 0.04 0.05 0.11 0.11 0.14 0.14 0.09 0.04 0.02 0.04 0.06 0.06 0.13 0.16 0.10 0.03 0.01 0.02 0.07 0.08 0.06 0.06 0.06 0.06 0.06 0.04 0.01 0.00 0.00 0.01 0.02 0.00 0.01 0.03 0.03 0.03 0.02
0.00 0.00 0.01 0.03 0.03 0.03 0.04 0.08 0.11 0.11 0.13 0.11 0.07 0.03 0.02 0.04 0.08 0.11 0.19 0.17 0.08 0.02 0.00 0.01 0.04 0.05 0.04 0.04 0.04 0.04 0.04 0.04 0.03 0.01 0.01 0.02 0.05 0.02 0.01 0.02 0.04 0.02 0.02
0.00 0.00 0.02 0.05 0.03 0.04 0.09 0.14 0.12 0.13 0.13 0.13 0.07 0.02 0.02 0.05 0.07 0.10 0.15 0.14 0.06 0.01 0.00 0.00 0.01 0.02 0.03 0.03 0.03 0.04 0.01 0.01 0.01 0.01 0.03 0.05 0.09 0.03 0.01 0.03 0.06 0.05 0.03
0.00 0.00 0.01 0.04 0.04 0.06 0.12 0.17 0.15 0.16 0.14 0.13 0.06 0.02 0.02 0.03 0.05 0.08 0.10 0.09 0.02 0.00 0.00 0.00 0.01 0.01 0.02 0.02 0.02 0.02 0.01 0.00 0.00 0.00 0.02 0.07 0.08 0.02 0.03 0.07 0.09 0.07 0.05
0.00 0.00 0.01 0.04 0.08 0.10 0.12 0.15 0.15 0.14 0.15 0.13 0.05 0.02 0.03 0.04 0.05 0.07 0.08 0.06 0.01 0.00 0.00 0.00 0.01 0.02 0.02 0.02 0.01 0.01 0.01 0.00 0.00 0.00 0.01 0.06 0.06 0.05 0.05 0.07 0.09 0.07 0.06
0.00 0.00 0.01 0.04 0.06 0.12 0.15 0.13 0.11 0.10 0.13 0.12 0.06 0.04 0.06 0.05 0.05 0.05 0.05 0.02 0.00 0.00 0.00 0.00 0.01 0.01 0.01 0.01 0.01 0.01 0.00 0.00 0.00 0.00 0.00 0.02 0.02 0.03 0.03 0.05 0.05 0.04 0.05
0.00 0.00 0.01 0.02 0.04 0.06 0.08 0.08 0.09 0.09 0.11 0.13 0.08 0.07 0.07 0.05 0.04 0.04 0.01 0.00 0.00 0.00 0.00 0.00 0.01 0.01 0.01 0.01 0.01 0.00 0.00 0.00 0.00 0.00 0.00 0.00 0.00 0.00 0.00 0.01 0.01 0.01 0.02
0.00 0.00 0.00 0.00 0.01 0.03 0.05 0.05 0.10 0.11 0.12 0.13 0.10 0.09 0.08 0.06 0.03 0.02 0.00 0.00 0.00 0.00 0.00 0.01 0.03 0.02 0.01 0.01 0.00 0.00 0.00 0.00 0.00 0.00 0.01 0.01 0.00 0.00 0.00 0.00 0.00 0.00 0.00
0.00 0.00 0.00 0.00 0.00 0.01 0.01 0.04 0.06 0.05 0.06 0.08 0.11 0.13 0.06 0.04 0.03 0.01 0.00 0.00 0.00 0.00 0.00 0.02 0.04 0.01 0.00 0.00 0.00 0.00 0.00 0.00 0.00 0.00 0.02 0.04 0.03 0.01 0.00 0.00 0.00 0.00 0.00
0.00 0.00 0.00 0.00 0.00 0.00 0.01 0.03 0.05 0.05 0.05 0.05 0.06 0.05 0.02 0.00 0.00 0.00 0.01 0.01 0.00 0.00 0.00 0.01 0.00 0.00 0.00 0.00 0.00 0.00 0.00 0.00 0.00 0.01 0.02 0.05 0.07 0.05 0.02 0.01 0.01 0.00 0.00
0.00 0.00 0.00 0.00 0.00 0.00 0.00 0.01 0.02 0.03 0.05 0.06 0.04 0.02 0.01 0.00 0.00 0.00 0.01 0.00 0.00 0.00 0.00 0.00 0.00 0.00 0.00 0.00 0.00 0.00 0.00 0.00 0.01 0.04 0.06 0.07 0.14 0.09 0.05 0.04 0.02 0.01 0.02
0.00 0.00 0.00 0.00 0.00 0.00 0.00 0.00 0.00 0.03 0.08 0.12 0.10 0.05 0.01 0.00 0.00 0.00 0.00 0.01 0.00 0.00 0.00 0.00 0.00 0.00 0.00 0.00 0.00 0.00 0.00 0.00 0.01 0.05 0.11 0.14 0.22 0.21 0.11 0.07 0.04 0.03 0.03
0.00 0.00 0.00 0.00 0.00 0.00 0.00 0.00 0.00 0.02 0.07 0.12 0.13 0.09 0.03 0.00 0.00 0.00 0.00 0.00 0.00 0.00 0.00 0.00 0.00 0.00 0.00 0.00 0.00 0.00 0.00 0.00 0.00 0.02 0.09 0.14 0.15 0.13 0.13 0.11 0.07 0.05 0.03
0.00 0.00 0.00 0.00 0.00 0.00 0.00 0.00 0.00 0.01 0.03 0.09 0.12 0.09 0.04 0.00 0.00 0.00 0.00 0.00 0.00 0.00 0.00 0.00 0.00 0.00 0.00 0.00 0.00 0.00 0.00 0.00 0.00 0.00 0.01 0.04 0.05 0.03 0.05 0.09 0.11 0.09 0.08
0.00 0.00 0.00 0.00 0.00 0.00 0.00 0.00 0.00 0.00 0.02 0.10 0.13 0.09 0.06 0.01 0.00 0.00 0.00 0.00 0.01 0.00 0.01 0.01 0.01 0.01 0.00 0.00 0.00 0.00 0.00 0.00 0.00 0.00 0.00 0.00 0.00 0.00 0.00 0.01 0.02 0.04 0.08
0.00 0.00 0.00 0.01 0.01 0.01 0.01 0.01 0.01 0.01 0.03 0.12 0.16 0.15 0.12 0.03 0.01 0.01 0.01 0.00 0.01 0.02 0.04 0.03 0.02 0.01 0.00 0.00 0.00 0.00 0.00 0.00 0.00 0.00 0.00 0.00 0.00 0.00 0.00 0.00 0.00 0.00 0.01
0.00 0.00 0.00 0.02 0.06 0.08 0.08 0.10 0.14 0.10 0.11 0.17 0.20 0.22 0.15 0.08 0.05 0.05 0.02 0.01 0.02 0.07 0.10 0.05 0.03 0.02 0.01 0.00 0.00 0.00 0.00 0.00 0.00 0.00 0.00 0.00 0.00 0.00 0.00 0.00 0.00 0.00 0.00
0.00 0.00 0.00 0.01 0.04 0.09 0.09 0.11 0.22 0.23 0.24 0.25 0.28 0.26 0.19 0.14 0.15 0.16 0.08 0.03 0.03 0.07 0.10 0.09 0.05 0.03 0.02 0.01 0.00 0.00 0.00 0.00 0.00 0.00 0.00 0.00 0.00 0.00 0.00 0.00 0.00 0.00 0.00
0.00 0.00 0.00 0.00 0.02 0.05 0.06 0.08 0.15 0.20 0.17 0.16 0.22 0.26 0.25 0.21 0.22 0.22 0.17 0.10 0.08 0.10 0.11 0.08 0.06 0.04 0.03 0.01 0.01 0.02 0.01 0.00 0.00 0.00 0.00 0.00 0.00 0.00 0.00 0.00 0.00 0.00 0.00
0.00 0.00 0.00 0.00 0.00 0.02 0.06 0.07 0.09 0.08 0.08 0.08 0.12 0.19 0.23 0.27 0.26 0.25 0.21 0.16 0.11 0.09 0.09 0.09 0.06 0.03 0.03 0.01 0.00 0.01 0.03 0.03 0.00 0.00 0.00 0.00 0.00 0.00 0.00 0.00 0.00 0.00 0.00
0.00 0.00 0.00 0.00 0.00 0.01 0.04 0.06 0.07 0.12 0.13 0.11 0.12 0.13 0.16 0.16 0.19 0.21 0.19 0.18 0.13 0.09 0.08 0.08 0.06 0.04 0.03 0.01 0.00 0.00 0.01 0.01 0.01 0.00 0.00 0.00 0.00 0.00 0.00 0.00 0.00 0.00 0.00
0.00 0.00 0.00 0.00 0.00 0.01 0.02 0.03 0.03 0.04 0.04 0.03 0.02 0.04 0.07 0.09 0.09 0.11 0.13 0.14 0.13 0.11 0.07 0.06 0.06 0.06 0.04 0.02 0.00 0.00 0.00 0.00 0.00 0.01 0.02 0.01 0.00 0.00 0.00 0.00 0.00 0.00 0.00
0.00 0.00 0.00 0.00 0.00 0.00 0.01 0.01 0.01 0.01 0.01 0.01 0.01 0.02 0.02 0.03 0.03 0.04 0.07 0.12 0.15 0.16 0.12 0.09 0.09 0.10 0.08 0.05 0.03 0.01 0.01 0.00 0.00 0.01 0.03 0.03 0.01 0.00 0.00 0.00 0.00 0.00 0.00
MSLP
1010.31 1010.18 1010.21 1010.40 1010.69 1011.04 1011.37 1011.64 1011.82 1011.91 1011.95 1011.99 1012.07 1012.23 1012.46 1012.75 1013.05 1013.31 1013.51 1013.61 1013.62 1013.59 1013.53 1013.48 1013.46 1013.48 1013.51 1013.52 1013.50 1013.44 1013.33 1013.21 1013.10 1013.04 1013.04 1013.11 1013.23 1013.37 1013.50 1013.59 1013.60 1013.56 1013.48
1010.18 1010.12 1010.21 1010.45 1010.79 1011.18 1011.55 1011.83 1012.02 1012.11 1012.15 1012.18 1012.25 1012.40 1012.63 1012.92 1013.21 1013.48 1013.67 1013.77 1013.79 1013.75 1013.70 1013.66 1013.65 1013.67 1013.71 1013.73 1013.72 1013.66 1013.55 1013.42 1013.30 1013.23 1013.23 1013.28 1013.40 1013.53 1013.65 1013.72 1013.74 1013.71 1013.63
1010.06 1010.07 1010.22 1010.52 1010.91 1011.33 1011.72 1012.03 1012.23 1012.33 1012.36 1012.39 1012.46 1012.60 1012.82 1013.08 1013.36 1013.61 1013.79 1013.88 1013.90 1013.86 1013.82 1013.79 1013.79 1013.83 1013.87 1013.90 1013.89 1013.82 1013.72 1013.59 1013.47 1013.39 1013.37 1013.42 1013.51 1013.63 1013.74 1013.81 1013.84 1013.82 1013.77
1009.94 1010.02 1010.24 1010.58 1011.01 1011.46 1011.87 1012.19 1012.40 1012.51 1012.56 1012.60 1012.67 1012.80 1013.00 1013.25 1013.51 1013.73 1013.89 1013.97 1013.99 1013.96 1013.93 1013.92 1013.93 1013.98 1014.02 1014.05 1014.03 1013.97 1013.86 1013.73 1013.60 1013.52 1013.49 1013.52 1013.60 1013.70 1013.79 1013.86 1013.90 1013.90 1013.89
1009.86 1010.00 1010.25 1010.63 1011.07 1011.53 1011.95 1012.29 1012.51 1012.64 1012.71 1012.76 1012.85 1012.99 1013.18 1013.41 1013.65 1013.85 1014.00 1014.08 1014.10 1014.09 1014.08 1014.09 1014.11 1014.16 1014.20 1014.22 1014.19 1014.11 1014.00 1013.87 1013.74 1013.65 1013.62 1013.63 1013.69 1013.76 1013.84 1013.91 1013.96 1013.99 1014.01
1009.83 1010.00 1010.27 1010.65 1011.10 1011.56 1011.97 1012.31 1012.55 1012.70 1012.80 1012.88 1012.99 1013.15 1013.35 1013.58 1013.80 1014.00 1014.14 1014.23 1014.27 1014.29 1014.30 1014.33 1014.37 1014.41 1014.44 1014.44 1014.39 1014.29 1014.16 1014.02 1013.90 1013.81 1013.76 1013.77 1013.80 1013.86 1013.92 1013.98 1014.03 1014.08 1014.13
1009.86 1010.04 1010.31 1010.68 1011.10 1011.54 1011.94 1012.27 1012.52 1012.70 1012.83 1012.96 1013.10 1013.29 1013.51 1013.74 1013.98 1014.18 1014.33 1014.44 1014.51 1014.56 1014.60 1014.65 1014.69 1014.73 1014.73 1014.70 1014.62 1014.50 1014.35 1014.21 1014.08 1013.99 1013.95 1013.95 1013.97 1014.01 1014.06 1014.10 1014.15 1014.21 1014.28
1009.95 1010.12 1010.37 1010.71 1011.11 1011.51 1011.88 1012.20 1012.46 1012.66 1012.83 1013.00 1013.19 1013.41 1013.65 1013.91 1014.15 1014.37 1014.54 1014.68 1014.78 1014.87 1014.94 1015.00 1015.05 1015.07 1015.05 1014.98 1014.86 1014.71 1014.55 1014.40 1014.28 1014.20 1014.17 1014.18 1014.20 1014.23 1014.26 1014.29 1014.32 1014.37 1014.44
1010.08 1010.23 1010.47 1010.78 1011.13 1011.50 1011.84 1012.14 1012.40 1012.62 1012.83 1013.04 1013.26 1013.52 1013.79 1014.06 1014.31 1014.54 1014.74 1014.90 1015.04 1015.15 1015.25 1015.33 1015.38 1015.38 1015.33 1015.22 1015.07 1014.89 1014.71 1014.56 1014.46 1014.40 1014.40 1014.42 1014.46 1014.50 1014.52 1014.53 1014.55 1014.57 1014.62
1010.20 1010.35 1010.57 1010.86 1011.18 1011.51 1011.83 1012.12 1012.37 1012.60 1012.83 1013.07 1013.33 1013.61 1013.89 1014.17 1014.43 1014.67 1014.87 1015.05 1015.21 1015.36 1015.48 1015.57 1015.61 1015.60 1015.52 1015.38 1015.20 1015.00 1014.82 1014.68 1014.60 1014.58 1014.61 1014.67 1014.74 1014.79 1014.82 1014.82 1014.81 1014.81 1014.82
1010.26 1010.43 1010.65 1010.93 1011.24 1011.54 1011.84 1012.11 1012.36 1012.60 1012.85 1013.11 1013.38 1013.66 1013.95 1014.22 1014.48 1014.71 1014.91 1015.10 1015.27 1015.43 1015.56 1015.66 1015.71 1015.69 1015.60 1015.44 1015.24 1015.04 1014.86 1014.74 1014.69 1014.71 1014.79 1014.90 1015.01 1015.09 1015.13 1015.14 1015.11 1015.07 1015.04
1010.23 1010.43 1010.67 1010.96 1011.26 1011.56 1011.84 1012.10 1012.35 1012.60 1012.85 1013.12 1013.40 1013.68 1013.96 1014.21 1014.45 1014.66 1014.85 1015.03 1015.20 1015.37 1015.51 1015.62 1015.68 1015.66 1015.57 1015.41 1015.22 1015.03 1014.87 1014.77 1014.76 1014.82 1014.95 1015.10 1015.25 1015.37 1015.44 1015.46 1015.42 1015.36 1015.28
1010.08 1010.31 1010.60 1010.90 1011.21 1011.51 1011.79 1012.06 1012.31 1012.56 1012.82 1013.09 1013.37 1013.65 1013.91 1014.14 1014.35 1014.53 1014.70 1014.87 1015.04 1015.20 1015.36 1015.48 1015.55 1015.56 1015.49 1015.36 1015.19 1015.03 1014.89 1014.83 1014.84 1014.94 1015.10 1015.29 1015.48 1015.64 1015.73 1015.77 1015.74 1015.66 1015.56
1009.80 1010.08 1010.40 1010.73 1011.06 1011.37 1011.66 1011.93 1012.20 1012.46 1012.73 1013.01 1013.29 1013.56 1013.80 1014.02 1014.21 1014.37 1014.52 1014.68 1014.84 1015.01 1015.17 1015.32 1015.42 1015.46 1015.43 1015.35 1015.22 1015.10 1015.00 1014.96 1015.00 1015.11 1015.29 1015.50 1015.71 1015.89 1016.01 1016.07 1016.06 1015.99 1015.87
1009.42 1009.74 1010.09 1010.45 1010.80 1011.13 1011.43 1011.72 1012.00 1012.28 1012.57 1012.86 1013.15 1013.42 1013.67 1013.88 1014.06 1014.22 1014.36 1014.51 1014.68 1014.86 1015.04 1015.21 1015.35 1015.44 1015.47 1015.44 1015.38 1015.31 1015.25 1015.23 1015.28 1015.39 1015.55 1015.75 1015.96 1016.14 1016.28 1016.36 1016.38 1016.32 1016.21
1009.02 1009.36 1009.72 1010.10 1010.46 1010.80 1011.12 1011.43 1011.73 1012.03 1012.34 1012.65 1012.96 1013.25 1013.52 1013.74 1013.94 1014.11 1014.27 1014.43 1014.61 1014.80 1015.00 1015.21 1015.39 1015.54 1015.64 1015.69 1015.69 1015.68 1015.66 1015.67 1015.71 1015.79 1015.92 1016.08 1016.25 1016.42 1016.56 1016.65 1016.69 1016.66 1016.58
1008.64 1008.98 1009.35 1009.72 1010.09 1010.44 1010.77 1011.09 1011.41 1011.74 1012.07 1012.41 1012.75 1013.07 1013.36 1013.62 1013.85 1014.06 1014.25 1014.44 1014.64 1014.85 1015.09 1015.32 1015.55 1015.76 1015.93 1016.05 1016.13 1016.18 1016.21 1016.23 1016.26 1016.31 1016.38 1016.48 1016.60 1016.72 1016.84 1016.94 1017.00 1017.01 1016.96
1008.37 1008.69 1009.04 1009.39 1009.74 1010.09 1010.43 1010.76 1011.10 1011.44 1011.80 1012.16 1012.52 1012.88 1013.21 1013.52 1013.79 1014.04 1014.28 1014.51 1014.74 1014.98 1015.24 1015.51 1015.78 1016.04 1016.27 1016.47 1016.63 1016.74 1016.81 1016.85 1016.87 1016.88 1016.90 1016.93 1016.98 1017.05 1017.14 1017.23 1017.30 1017.34 1017.33
1008.23 1008.52 1008.83 1009.15 1009.48 1009.81 1010.15 1010.48 1010.83 1011.18 1011.55 1011.92 1012.30 1012.68 1013.05 1013.40 1013.73 1014.03 1014.32 1014.59 1014.86 1015.13 1015.41 1015.70 1015.99 1016.29 1016.58 1016.84 1017.06 1017.24 1017.37 1017.44 1017.46 1017.44 1017.41 1017.38 1017.37 1017.39 1017.44 1017.52 1017.60 1017.66 1017.68
1008.22 1008.47 1008.74 1009.02 1009.32 1009.63 1009.96 1010.28 1010.62 1010.97 1011.33 1011.70 1012.09 1012.47 1012.86 1013.25 1013.62 1013.97 1014.31 1014.62 1014.92 1015.21 1015.50 1015.79 1016.10 1016.42 1016.74 1017.06 1017.34 1017.59 1017.77 1017.89 1017.93 1017.92 1017.86 1017.79 1017.74 1017.71 1017.73 1017.79 1017.88 1017.96 1018.01
1008.30 1008.52 1008.75 1009.00 1009.27 1009.55 1009.85 1010.16 1010.49 1010.82 1011.15 1011.50 1011.87 1012.25 1012.64 1013.04 1013.44 1013.83 1014.20 1014.55 1014.86 1015.16 1015.45 1015.75 1016.05 1016.37 1016.71 1017.06 1017.40 1017.70 1017.95 1018.13 1018.22 1018.23 1018.18 1018.11 1018.03 1017.99 1017.99 1018.05 1018.14 1018.23 1018.31
1008.44 1008.63 1008.83 1009.04 1009.28 1009.54 1009.81 1010.11 1010.40 1010.70 1011.01 1011.32 1011.65 1012.00 1012.38 1012.77 1013.18 1013.59 1013.98 1014.35 1014.68 1014.98 1015.27 1015.54 1015.82 1016.14 1016.48 1016.84 1017.22 1017.58 1017.89 1018.13 1018.28 1018.34 1018.34 1018.29 1018.23 1018.19 1018.20 1018.26 1018.36 1018.47 1018.57
1008.58 1008.76 1008.93 1009.11 1009.32 1009.56 1009.81 1010.08 1010.35 1010.62 1010.88 1011.15 1011.43 1011.73 1012.08 1012.45 1012.86 1013.27 1013.67 1014.05 1014.39 1014.69 1014.96 1015.21 1015.47 1015.76 1016.08 1016.45 1016.84 1017.24 1017.60 1017.90 1018.13 1018.26 1018.31 1018.32 1018.30 1018.29 1018.32 1018.40 1018.52 1018.66 1018.78
1008.68 1008.85 1009.00 1009.17 1009.35 1009.57 1009.81 1010.06 1010.30 1010.54 1010.76 1010.98 1011.21 1011.47 1011.77 1012.12 1012.50 1012.91 1013.31 1013.70 1014.04 1014.34 1014.60 1014.83 1015.07 1015.32 1015.63 1015.98 1016.37 1016.78 1017.17 1017.52 1017.81 1018.01 1018.13 1018.19 1018.23 1018.27 1018.34 1018.45 1018.60 1018.77 1018.93
1008.71 1008.89 1009.03 1009.18 1009.35 1009.55 1009.78 1010.02 1010.25 1010.46 1010.65 1010.83 1011.02 1011.23 1011.49 1011.80 1012.16 1012.56 1012.96 1013.36 1013.71 1014.02 1014.27 1014.50 1014.71 1014.94 1015.21 1015.53 1015.90 1016.30 1016.70 1017.08 1017.40 1017.65 1017.82 1017.95 1018.04 1018.12 1018.24 1018.39 1018.58 1018.79 1018.99
1008.70 1008.87 1009.01 1009.14 1009.30 1009.50 1009.72 1009.95 1010.18 1010.38 1010.56 1010.72 1010.87 1011.05 1011.26 1011.54 1011.88 1012.26 1012.66 1013.07 1013.44 1013.76 1014.04 1014.27 1014.48 1014.69 1014.93 1015.22 1015.55 1015.91 1016.29 1016.65 1016.97 1017.24 1017.45 1017.61 1017.74 1017.87 1018.02 1018.21 1018.44 1018.70 1018.95
Thickness
5811 5810 5800 5797 5793 5789 5785 5782 5779 5776 5774 5771 5769 5767 5765 5763 5761 5758 5757 5755 5754 5753 5752 5752 5754 5757 5760 5763 5765 5767 5769 5771 5772 5774 5774 5775 5775 5775 5776 5775 5776 5779 5779
5814 5810 5800 5797 5792 5788 5784 5781 5778 5776 5773 5770 5768 5766 5763 5761 5759 5757 5755 5753 5751 5750 5748 5748 5749 5752 5756 5759 5762 5764 5766 5768 5770 5771 5772 5773 5773 5773 5773 5773 5774 5776 5777
5813 5808 5800 5796 5792 5788 5784 5780 5777 5774 5771 5769 5767 5765 5762 5760 5757 5755 5753 5751 5750 5748 5746 5746 5747 5749 5752 5755 5759 5761 5763 5765 5767 5768 5770 5774 5772 5771 5771 5772 5772 5773 5774
5812 5807 5802 5795 5791 5787 5783 5779 5776 5773 5770 5767 5765 5763 5760 5758 5755 5753 5751 5749 5748 5746 5745 5745 5746 5747 5749 5751 5754 5757 5759 5761 5763 5766 5772 5773 5774 5770 5770 5771 5771 5772 5773
5810 5805 5800 5794 5790 5786 5782 5778 5775 5772 5768 5766 5763 5760 5758 5755 5753 5751 5748 5747 5745 5744 5744 5744 5745 5746 5747 5749 5751 5752 5754 5756 5761 5766 5769 5770 5770 5768 5769 5769 5770 5770 5771
5807 5803 5798 5792 5788 5784 5780 5777 5774 5771 5767 5764 5760 5758 5756 5753 5750 5748 5746 5744 5743 5742 5742 5743 5744 5745 5746 5747 5748 5750 5752 5755 5760 5764 5766 5768 5767 5766 5767 5767 5768 5768 5768
5807 5802 5797 5789 5785 5782 5778 5775 5773 5769 5766 5762 5759 5755 5753 5751 5748 5746 5743 5741 5740 5740 5740 5741 5742 5744 5745 5746 5747 5749 5751 5755 5760 5762 5764 5764 5763 5763 5764 5765 5765 5766 5766
5806 5801 5796 5787 5784 5780 5777 5774 5770 5767 5764 5760 5756 5753 5750 5747 5745 5743 5741 5738 5737 5737 5738 5739 5740 5742 5743 5744 5746 5747 5749 5753 5758 5761 5761 5760 5759 5759 5760 5761 5762 5763 5763
5804 5800 5795 5789 5784 5778 5775 5772 5769 5765 5761 5757 5753 5749 5746 5744 5741 5739 5737 5735 5734 5734 5735 5736 5737 5738 5740 5742 5743 5745 5747 5750 5757 5758 5760 5758 5756 5756 5756 5757 5758 5759 5760
5802 5799 5795 5790 5786 5781 5775 5769 5766 5762 5758 5754 5750 5746 5742 5739 5737 5735 5734 5732 5730 5730 5731 5732 5733 5734 5736 5738 5739 5742 5744 5748 5753 5756 5757 5754 5752 5752 5753 5753 5755 5756 5756
5797 5797 5795 5792 5787 5781 5775 5768 5763 5759 5755 5751 5747 5743 5740 5739 5737 5734 5731 5728 5727 5727 5727 5728 5728 5729 5732 5733 5735 5738 5743 5749 5750 5753 5751 5748 5748 5749 5749 5750 5751 5752 5754
5795 5794 5795 5792 5787 5781 5775 5768 5763 5758 5753 5750 5746 5742 5741 5738 5736 5734 5725 5724 5723 5723 5723 5724 5724 5726 5731 5735 5734 5737 5742 5744 5747 5748 5745 5744 5745 5745 5746 5747 5748 5750 5752
5798 5793 5792 5790 5786 5782 5775 5769 5763 5757 5753 5750 5746 5742 5740 5736 5732 5729 5725 5722 5721 5722 5723 5720 5724 5727 5730 5731 5734 5736 5737 5740 5742 5743 5740 5739 5740 5741 5743 5744 5746 5748 5749
5798 5794 5791 5789 5785 5781 5776 5770 5764 5758 5751 5749 5745 5741 5738 5734 5731 5728 5725 5724 5722 5722 5721 5724 5724 5724 5726 5730 5732 5733 5733 5735 5735 5734 5733 5734 5735 5736 5738 5739 5742 5744 5747
5796 5793 5791 5787 5784 5779 5774 5768 5763 5757 5751 5746 5741 5739 5736 5732 5730 5727 5725 5722 5723 5722 5720 5720 5723 5722 5722 5723 5724 5726 5727 5728 5728 5726 5726 5727 5729 5730 5732 5734 5736 5739 5742
5796 5793 5791 5786 5782 5777 5771 5766 5762 5756 5748 5744 5739 5736 5734 5730 5728 5724 5724 5720 5721 5720 5720 5720 5720 5717 5717 5717 5717 5717 5719 5721 5722 5721 5721 5721 5722 5723 5725 5728 5730 5734 5737
5797 5794 5790 5785 5781 5776 5771 5766 5761 5756 5750 5743 5738 5735 5732 5730 5726 5722 5722 5720 5719 5718 5718 5718 5717 5715 5713 5711 5712 5713 5713 5714 5716 5717 5717 5717 5717 5716 5718 5721 5724 5727 5731
5797 5793 5790 5785 5781 5777 5771 5765 5761 5757 5751 5743 5736 5733 5731 5728 5725 5722 5719 5718 5717 5717 5716 5714 5714 5712 5710 5709 5709 5709 5709 5708 5710 5711 5713 5714 5713 5714 5713 5714 5716 5720 5723
5796 5792 5788 5785 5780 5776 5770 5765 5761 5758 5751 5743 5736 5731 5727 5727 5725 5720 5717 5716 5714 5714 5713 5712 5712 5710 5708 5706 5705 5704 5705 5705 5704 5706 5709 5709 5708 5709 5710 5709 5710 5712 5716
5793 5791 5788 5783 5778 5774 5768 5763 5758 5754 5750 5744 5738 5731 5726 5723 5723 5720 5715 5714 5713 5710 5708 5708 5708 5707 5705 5703 5703 5700 5700 5701 5701 5701 5702 5703 5704 5704 5705 5706 5709 5709 5711
5787 5785 5782 5778 5774 5769 5762 5758 5752 5748 5746 5742 5738 5732 5726 5721 5718 5715 5711 5712 5710 5707 5705 5705 5704 5702 5701 5702 5699 5695 5695 5698 5698 5696 5698 5699 5699 5699 5702 5703 5704 5707 5709
5780 5777 5776 5772 5768 5763 5758 5755 5753 5749 5745 5742 5738 5732 5726 5721 5716 5712 5707 5705 5705 5705 5703 5703 5702 5700 5699 5699 5698 5693 5689 5688 5690 5693 5694 5695 5698 5697 5699 5701 5702 5703 5705
5773 5770 5767 5765 5761 5757 5753 5749 5747 5744 5740 5737 5733 5729 5725 5720 5714 5708 5705 5703 5703 5703 5702 5702 5702 5699 5696 5697 5702 5698 5692 5690 5690 5691 5694 5694 5694 5695 5696 5697 5699 5700 5701
5768 5765 5763 5758 5756 5751 5748 5745 5742 5737 5732 5732 5731 5727 5723 5718 5713 5708 5703 5701 5701 5701 5702 5701 5702 5700 5697 5694 5697 5700 5704 5701 5695 5689 5690 5694 5693 5693 5694 5693 5695 5697 5698
5762 5759 5757 5753 5749 5745 5742 5739 5735 5733 5730 5728 5725 5722 5719 5716 5712 5708 5704 5701 5700 5699 5700 5700 5700 5699 5697 5695 5694 5694 5695 5696 5702 5698 5690 5690 5691 5693 5693 5693 5692 5694 5694
5756 5753 5750 5746 5741 5736 5733 5730 5728 5724 5720 5716 5714 5713 5711 5709 5708 5707 5704 5701 5699 5697 5696 5696 5696 5695 5696 5695 5695 5695 5693 5693 5695 5698 5695 5691 5692 5693 5692 5691 5691 5691 5691